This is the latest recevied weather packets stored in our database for station/object SR2ATJ-13. If no packets are shown the sender has not sent any weather packets the latest 10 day(s).
| Time | Temp. | Humidity | Pressure | Rain* | Wind** | Luminosity | Snow |
|---|---|---|---|---|---|---|---|
| 1777329904 | 2.22° C | 55% | 1025 hPa | - | - | - | - |
| 1777329305 | 2.78° C | 55% | 1025 hPa | - | - | - | - |
| 1777328703 | 2.78° C | 55% | 1024.9 hPa | - | - | - | - |
| 1777328104 | 2.78° C | 54% | 1024.8 hPa | - | - | - | - |
| 1777327503 | 3.33° C | 54% | 1024.6 hPa | - | - | - | - |
| 1777326903 | 3.33° C | 53% | 1024.6 hPa | - | - | - | - |
| 1777326304 | 3.33° C | 53% | 1024.3 hPa | - | - | - | - |
| 1777325703 | 3.89° C | 53% | 1024.2 hPa | - | - | - | - |
| 1777325103 | 3.89° C | 53% | 1024.2 hPa | - | - | - | - |
| 1777324504 | 3.89° C | 52% | 1024.1 hPa | - | - | - | - |
| 1777323903 | 3.89° C | 51% | 1024.1 hPa | - | - | - | - |
| 1777323303 | 4.44° C | 50% | 1024 hPa | - | - | - | - |
| 1777322705 | 4.44° C | 50% | 1024.1 hPa | - | - | - | - |
| 1777322105 | 5° C | 50% | 1023.9 hPa | - | - | - | - |
| 1777320904 | 5° C | 49% | 1023.8 hPa | - | - | - | - |
| 1777320303 | 5.56° C | 48% | 1023.7 hPa | - | - | - | - |
| 1777319104 | 6.11° C | 47% | 1023.6 hPa | - | - | - | - |
| 1777318503 | 6.11° C | 46% | 1023.5 hPa | - | - | - | - |
| 1777317903 | 6.67° C | 45% | 1023.3 hPa | - | - | - | - |
| 1777317306 | 6.67° C | 44% | 1023.1 hPa | - | - | - | - |
| 1777316704 | 7.22° C | 44% | 1023 hPa | - | - | - | - |
| 1777315505 | 7.78° C | 42% | 1022.6 hPa | - | - | - | - |
| 1777314903 | 8.33° C | 41% | 1022.4 hPa | - | - | - | - |
| 1777314303 | 8.33° C | 41% | 1022.1 hPa | - | - | - | - |
| 1777313703 | 8.89° C | 40% | 1021.9 hPa | - | - | - | - |
* Rain since midnight (hover to see other rain measurements)
** Current wind speed in m/s (hover to see current wind gust speed)